Terminal

Terminal

Towards east Towards west


Weather at Vagar airport (metar):

EKVG 260450Z AUTO 15013KT 120V180 3400 -RA OVC002/// 11/11 Q1005

METAR / TAF from DMI at Vagar                      Weather from Vagar airport

Atlantic Airways

Atlantic Airways official webpage

News

26. January 2015
Note about laser beams

Weather

Information

Webcamera

Terminalur